DECAYED

STARLINK-1765, 46344 (Decayed)

Orbit data source: Space-Track

STARLINK-1765, 46344 was a payload satellite owned by SpaceX/Seattle (US) in LEO that was launched on Thu, 03 Sep 2020 UTC via an FALCON 9 launch vehicle from the Air Force Eastern Test Range (AFETR). Payload-class satellites include a variety of spacecraft equipped with specific instruments for various scientific and technological missions. These include communications satellites like Starlink; space stations such as the ISS; scientific satellites like the Hubble; Earth observation satellites from companies like Planet Labs, Umbra, and HawkEye 360; GPS; miniature CubeSats for education and research; and military/defense satellites.

Not visible in the next 10 days
Identifier
46344, 2020-062V
Orbit
Decayed
Country
Flag of USUS
Related business
Manufacturer
SpaceX/Seattle
Mission
Decayed Commercial Communications
Bus & Motor
STARLINK, Unknown motor
Mass
260 kg wet, ~248 kg dry
Launch date (UTC)
2020-09-03 (6 years ago)
Launch vehicle
FALCON 9
Launch site
Air Force Eastern Test Range (AFETR)
Object type
Payload
Rocket body
Debris
Shape & HBR
Box + 1 Pan, 10.1 m
Radar Cross Section
13.562 m², Large (>1 m²)

Expand to show TLE details & history
Last TLE update: 3 months ago

TLE from 3 months ago
0 STARLINK-1765
1 46344U 20062V   26094.12200836  .16666397  12627-4  22282-3 0  9999
2 46344  53.0192 169.8956 0003195 279.5162 155.8565 16.49148330309430
Epoch: 2026-04-04T02:55Z
TLE epoch observation values (Epoch: 2026-04-04T02:55:41.522Z)
Latitude
50.78093°
Longitude
0.06857°
Altitude
149.41 km
Speed
7.822 km/s
True Right ascension
15h 45m 45s
True Declination
50° 35' 48"
Sunlit
Object was in full shadow at epoch
Visualization orbit readout
Latitude
Unknown
Longitude
Unknown
Altitude
Unknown
Speed
Unknown
Apparent Right ascension
Unknown
Apparent Declination
Unknown
Sunlit
N/A
Visualization observer readout
Local Sidereal Time
21:41:23
Azimuth
Unknown
Elevation
Unknown
Doppler factor
Unknown
Orbital elements
Apogee altitude
143.955 km
Perigee altitude
139.789 km
Semi-major axis
6,520.009 km
Eccentricity
0.00032
Inclination
53.0192°
RAAN
169.8956°
Arg. of periapsis
279.5162°
True anomaly
155.87147°
Mean anomaly
155.8565°
Eccentric anomaly
155.86399°
Mean motion
4.1226 °/min
Orbital period
87.32 mins
BSTAR
0.00022282
Loading maneuver chart data...
Computing Atmospheric mass density...

Documentation

Showing up to 5 results
|